User: anonymous   Login
Location: Natural Bridges National Monument
(37.6093°N, 109.9767°W)
Time: 18:38:52
(UTC-06:00)
Language:

USA 32 - Orbit

View from above orbital plane
View from above orbital plane
View from above satellite
View from above satellite

Ground track
Ground track

The orbit data is extracted from the following two-line orbital elements,

1 19460U 88078A   16185.12349449 0.00000060  00000-0  21792-4 0    02
2 19460  84.9853  64.6397 0002000 271.9536  88.0463 14.33381924    06
Epoch (UTC): 03 July 2016 02:57:49
Eccentricity: 0.0002000
inclination: 84.9853°
perigee height: 779 km
apogee height: 782 km
right ascension of ascending node: 64.6397°
argument of perigee: 271.9536°
revolutions per day: 14.33381924
mean anomaly at epoch: 88.0463°
orbit number at epoch: 0

The dashed part of the orbit path shows where the satellite is in the earth's shadow,  

DLR